| time (UTC) | temp F | wind direction | speed MPH | gust MPH | rain 1hr in | rain 24hr in | rain mn in | humidity % | barometer mb |
| 20260904201008 | 92 | 240 | 0.0 | 1.0 | 0.00 | 0.00 | 0.00 | 58 | 1013.1 |
| 20260904200505 | 91 | 240 | 0.0 | 1.0 | 0.00 | 0.00 | 0.00 | 59 | 1013.2 |
| 20260904200007 | 91 | 240 | 0.0 | 3.0 | 0.00 | 0.00 | 0.00 | 58 | 1013.2 |
| 20260904195505 | 91 | 240 | 1.0 | 7.0 | 0.00 | 0.00 | 0.00 | 59 | 1013.3 |
| 20260904195006 | 91 | 256 | 1.0 | 7.0 | 0.00 | 0.00 | 0.00 | 58 | 1013.5 |
| 20260904194507 | 91 | 248 | 1.0 | 4.0 | 0.00 | 0.00 | 0.00 | 59 | 1013.5 |
| 20260904194007 | 91 | 224 | 0.0 | 3.0 | 0.00 | 0.00 | 0.00 | 59 | 1013.5 |
| 20260904193505 | 91 | 232 | 0.0 | 1.0 | 0.00 | 0.00 | 0.00 | 60 | 1013.6 |
| 20260904193007 | 90 | 231 | 0.0 | 3.0 | 0.00 | 0.00 | 0.00 | 60 | 1013.6 |
| 20260904192505 | 90 | 229 | 0.0 | 3.0 | 0.00 | 0.00 | 0.00 | 59 | 1013.7 |
| 20260904192005 | 90 | 280 | 0.0 | 2.0 | 0.00 | 0.00 | 0.00 | 60 | 1013.8 |
| 20260904191506 | 90 | 280 | 0.0 | 2.0 | 0.00 | 0.00 | 0.00 | 62 | 1013.8 |
| 20260904190007 | 88 | 250 | 0.0 | 1.0 | 0.00 | 0.00 | 0.00 | 60 | 1013.9 |
| 20260904185506 | 88 | 250 | 0.0 | 2.0 | 0.00 | 0.00 | 0.00 | 61 | 1014.1 |
| 20260904184506 | 87 | 178 | 0.0 | 0.0 | 0.00 | 0.00 | 0.00 | 62 | 1014.1 |
| 20260904183504 | 86 | 190 | 0.0 | 1.0 | 0.00 | 0.00 | 0.00 | 62 | 1014.1 |
| 20260904183005 | 86 | 190 | 0.0 | 1.0 | 0.00 | 0.00 | 0.00 | 63 | 1014.3 |
| 20260904182503 | 86 | 112 | 0.0 | 1.0 | 0.00 | 0.00 | 0.00 | 64 | 1014.2 |
| 20260904182009 | 86 | 84 | 0.0 | 2.0 | 0.00 | 0.00 | 0.00 | 65 | 1014.4 |
| 20260904181504 | 86 | 84 | 0.0 | 1.0 | 0.00 | 0.00 | 0.00 | 64 | 1014.4 |
| 20260904181006 | 86 | 85 | 0.0 | 1.0 | 0.00 | 0.00 | 0.00 | 65 | 1014.5 |
| 20260904180009 | 85 | 204 | 0.0 | 2.0 | 0.00 | 0.00 | 0.00 | 64 | 1014.7 |
| 20260904175007 | 85 | 192 | 0.0 | 3.0 | 0.00 | 0.00 | 0.00 | 65 | 1015.1 |
| 20260904174004 | 84 | 269 | 0.0 | 2.0 | 0.00 | 0.00 | 0.00 | 70 | 1015.5 |
| 20260904173503 | 83 | 59 | 0.0 | 2.0 | 0.00 | 0.00 | 0.00 | 70 | 1015.7 |
| 20260904173004 | 83 | 57 | 1.0 | 4.0 | 0.00 | 0.00 | 0.00 | 70 | 1015.8 |
| 20260904172503 | 82 | 65 | 1.0 | 4.0 | 0.00 | 0.00 | 0.00 | 69 | 1016.0 |
| 20260904172004 | 82 | 58 | 1.0 | 4.0 | 0.00 | 0.00 | 0.00 | 71 | 1016.2 |
| 20260904171503 | 82 | 5 | 1.0 | 8.0 | 0.00 | 0.00 | 0.00 | 69 | 1016.3 |
| 20260904170503 | 81 | 77 | 1.0 | 4.0 | 0.00 | 0.00 | 0.00 | 70 | 1016.2 |
| 20260904170009 | 81 | 59 | 2.0 | 4.0 | 0.00 | 0.00 | 0.00 | 71 | 1016.1 |
| 20260904165504 | 81 | 58 | 1.0 | 6.0 | 0.00 | 0.00 | 0.00 | 70 | 1016.2 |
| 20260904165008 | 81 | 84 | 2.0 | 8.0 | 0.00 | 0.00 | 0.00 | 70 | 1016.3 |
| 20260904164503 | 80 | 51 | 2.0 | 11.0 | 0.00 | 0.00 | 0.00 | 72 | 1016.2 |
| 20260904164008 | 80 | 67 | 2.0 | 11.0 | 0.00 | 0.00 | 0.00 | 72 | 1016.5 |
| 20260904163503 | 80 | 351 | 1.0 | 5.0 | 0.00 | 0.00 | 0.00 | 73 | 1016.4 |
| 20260904163006 | 80 | 27 | 1.0 | 6.0 | 0.00 | 0.00 | 0.00 | 74 | 1016.5 |
| 20260904162504 | 81 | 73 | 2.0 | 9.0 | 0.00 | 0.00 | 0.00 | 73 | 1016.6 |
| 20260904162006 | 81 | 20 | 2.0 | 9.0 | 0.00 | 0.00 | 0.00 | 73 | 1016.5 |
| 20260904161004 | 81 | 74 | 1.0 | 8.0 | 0.00 | 0.00 | 0.00 | 74 | 1016.4 |
| 20260904160503 | 81 | 28 | 2.0 | 5.0 | 0.00 | 0.00 | 0.00 | 74 | 1016.2 |
| 20260904160007 | 81 | 83 | 2.0 | 8.0 | 0.00 | 0.00 | 0.00 | 74 | 1016.3 |
| 20260904155503 | 82 | 52 | 1.0 | 8.0 | 0.00 | 0.00 | 0.00 | 73 | 1016.3 |
| 20260904155007 | 82 | 11 | 2.0 | 7.0 | 0.00 | 0.00 | 0.00 | 74 | 1016.2 |
| 20260904154504 | 82 | 69 | 1.0 | 7.0 | 0.00 | 0.00 | 0.00 | 75 | 1015.9 |
| 20260904154009 | 82 | 14 | 1.0 | 4.0 | 0.00 | 0.00 | 0.00 | 75 | 1016.1 |
| 20260904153506 | 83 | 65 | 1.0 | 4.0 | 0.00 | 0.00 | 0.00 | 75 | 1015.8 |
| 20260904153004 | 84 | 69 | 0.0 | 2.0 | 0.00 | 0.00 | 0.00 | 74 | 1015.6 |
| 20260904152506 | 84 | 55 | 0.0 | 3.0 | 0.00 | 0.00 | 0.00 | 75 | 1015.5 |
| 20260904152007 | 83 | 61 | 0.0 | 2.0 | 0.00 | 0.00 | 0.00 | 76 | 1015.4 |
| 20260904151506 | 83 | 58 | 1.0 | 4.0 | 0.00 | 0.00 | 0.00 | 76 | 1015.4 |
| 20260904150505 | 83 | 67 | 1.0 | 5.0 | 0.00 | 0.00 | 0.00 | 77 | 1015.4 |
| 20260904150007 | 82 | 67 | 1.0 | 6.0 | 0.00 | 0.00 | 0.00 | 77 | 1015.2 |
| 20260904145503 | 82 | 63 | 1.0 | 6.0 | 0.00 | 0.00 | 0.00 | 77 | 1015.1 |
| 20260904145007 | 82 | 59 | 0.0 | 3.0 | 0.00 | 0.00 | 0.00 | 77 | 1014.9 |
| 20260904144505 | 82 | 68 | 0.0 | 3.0 | 0.00 | 0.00 | 0.00 | 78 | 1015.0 |
| 20260904144006 | 81 | 48 | 0.0 | 3.0 | 0.00 | 0.00 | 0.00 | 80 | 1015.0 |
| 20260904143503 | 81 | 63 | 1.0 | 3.0 | 0.00 | 0.00 | 0.00 | 80 | 1015.1 |
| 20260904143004 | 80 | 33 | 0.0 | 2.0 | 0.00 | 0.00 | 0.00 | 80 | 1015.0 |
| 20260904142503 | 80 | 30 | 0.0 | 3.0 | 0.00 | 0.00 | 0.00 | 80 | 1015.0 |
| 20260904142004 | 80 | 29 | 1.0 | 3.0 | 0.00 | 0.00 | 0.00 | 80 | 1015.0 |
| 20260904141504 | 80 | 66 | 1.0 | 3.0 | 0.00 | 0.00 | 0.00 | 80 | 1015.0 |
| 20260904141004 | 80 | 29 | 1.0 | 4.0 | 0.00 | 0.00 | 0.00 | 81 | 1014.9 |
| 20260904140503 | 80 | 51 | 1.0 | 5.0 | 0.00 | 0.00 | 0.00 | 80 | 1014.9 |
| 20260904140008 | 80 | 40 | 2.0 | 5.0 | 0.00 | 0.00 | 0.00 | 80 | 1014.9 |
| 20260904135506 | 80 | 65 | 1.0 | 8.0 | 0.00 | 0.00 | 0.00 | 80 | 1014.7 |
| 20260904134503 | 80 | 47 | 0.0 | 1.0 | 0.00 | 0.00 | 0.00 | 80 | 1014.4 |
| 20260904134007 | 79 | 47 | 0.0 | 1.0 | 0.00 | 0.00 | 0.00 | 80 | 1014.4 |
| 20260904133503 | 79 | 40 | 0.0 | 0.0 | 0.00 | 0.00 | 0.00 | 81 | 1014.4 |
| 20260904133004 | 79 | 40 | 0.0 | 0.0 | 0.00 | 0.00 | 0.00 | 83 | 1014.6 |
| 20260904132503 | 78 | 40 | 0.0 | 0.0 | 0.00 | 0.00 | 0.00 | 82 | 1014.5 |
| 20260904132004 | 78 | 40 | 0.0 | 0.0 | 0.00 | 0.00 | 0.00 | 83 | 1014.4 |
| 20260904131503 | 78 | 40 | 0.0 | 0.0 | 0.00 | 0.00 | 0.00 | 83 | 1014.3 |
| 20260904131004 | 78 | 40 | 0.0 | 0.0 | 0.00 | 0.00 | 0.00 | 83 | 1014.3 |
| 20260904130503 | 77 | 40 | 0.0 | 1.0 | 0.00 | 0.00 | 0.00 | 84 | 1014.4 |
| 20260904130010 | 77 | 40 | 0.0 | 1.0 | 0.00 | 0.00 | 0.00 | 84 | 1014.4 |
| 20260904125504 | 76 | 39 | 0.0 | 1.0 | 0.00 | 0.00 | 0.00 | 85 | 1014.3 |
| 20260904125004 | 76 | 39 | 0.0 | 0.0 | 0.00 | 0.00 | 0.00 | 85 | 1014.1 |
| 20260904123503 | 76 | 272 | 0.0 | 0.0 | 0.00 | 0.00 | 0.00 | 85 | 1013.9 |
| 20260904122503 | 76 | 272 | 0.0 | 0.0 | 0.00 | 0.00 | 0.00 | 84 | 1013.4 |
| 20260904122007 | 76 | 272 | 0.0 | 0.0 | 0.00 | 0.00 | 0.00 | 84 | 1013.3 |
| 20260904121503 | 76 | 272 | 0.0 | 0.0 | 0.00 | 0.00 | 0.00 | 83 | 1013.3 |
| 20260904121004 | 76 | 272 | 0.0 | 0.0 | 0.00 | 0.00 | 0.00 | 83 | 1013.3 |
| 20260904120503 | 76 | 272 | 0.0 | 0.0 | 0.00 | 0.00 | 0.00 | 82 | 1013.3 |
| 20260904120006 | 76 | 272 | 0.0 | 0.0 | 0.00 | 0.00 | 0.00 | 82 | 1013.2 |
| 20260904115505 | 77 | 272 | 0.0 | 0.0 | 0.00 | 0.00 | 0.00 | 82 | 1013.2 |
| 20260904115007 | 77 | 272 | 0.0 | 0.0 | 0.00 | 0.00 | 0.00 | 81 | 1013.1 |
| 20260904114503 | 77 | 272 | 0.0 | 0.0 | 0.00 | 0.00 | 0.00 | 80 | 1013.0 |
| 20260904114006 | 77 | 272 | 0.0 | 0.0 | 0.00 | 0.00 | 0.00 | 80 | 1012.8 |
| 20260904113502 | 77 | 272 | 0.0 | 0.0 | 0.00 | 0.00 | 0.00 | 80 | 1012.8 |
| 20260904113004 | 77 | 272 | 0.0 | 0.0 | 0.00 | 0.00 | 0.00 | 79 | 1012.7 |
| 20260904112502 | 78 | 272 | 0.0 | 0.0 | 0.00 | 0.00 | 0.00 | 78 | 1012.6 |
| 20260904112004 | 78 | 272 | 0.0 | 0.0 | 0.00 | 0.00 | 0.00 | 78 | 1012.6 |
| 20260904111503 | 78 | 272 | 0.0 | 0.0 | 0.00 | 0.00 | 0.00 | 78 | 1012.5 |
| 20260904111004 | 78 | 272 | 0.0 | 1.0 | 0.00 | 0.00 | 0.00 | 78 | 1012.5 |
| 20260904105503 | 79 | 272 | 0.0 | 1.0 | 0.00 | 0.00 | 0.00 | 77 | 1012.5 |
| 20260904105004 | 79 | 272 | 0.0 | 1.0 | 0.00 | 0.00 | 0.00 | 77 | 1012.2 |
| 20260904104502 | 79 | 233 | 0.0 | 1.0 | 0.00 | 0.00 | 0.00 | 77 | 1012.2 |
| 20260904103503 | 79 | 229 | 0.0 | 2.0 | 0.00 | 0.00 | 0.00 | 77 | 1012.1 |
| 20260904103005 | 79 | 269 | 0.0 | 0.0 | 0.00 | 0.00 | 0.00 | 77 | 1012.2 |
| 20260904102502 | 79 | 269 | 0.0 | 0.0 | 0.00 | 0.00 | 0.00 | 77 | 1012.2 |
| 20260904101503 | 79 | 269 | 0.0 | 1.0 | 0.00 | 0.00 | 0.00 | 78 | 1012.1 |
| 20260904101003 | 79 | 269 | 0.0 | 2.0 | 0.00 | 0.00 | 0.00 | 78 | 1012.1 |
| 20260904100007 | 79 | 257 | 0.0 | 1.0 | 0.00 | 0.00 | 0.00 | 79 | 1012.0 |
| 20260904095502 | 79 | 257 | 0.0 | 2.0 | 0.00 | 0.00 | 0.00 | 80 | 1012.0 |
| 20260904095004 | 78 | 255 | 0.0 | 3.0 | 0.00 | 0.00 | 0.00 | 81 | 1011.9 |
| 20260904094506 | 78 | 259 | 0.0 | 3.0 | 0.00 | 0.00 | 0.00 | 82 | 1012.0 |
| 20260904094003 | 78 | 265 | 0.0 | 1.0 | 0.00 | 0.00 | 0.00 | 82 | 1012.1 |
| 20260904093503 | 78 | 265 | 0.0 | 1.0 | 0.00 | 0.00 | 0.00 | 83 | 1012.3 |
| 20260904093005 | 78 | 265 | 0.0 | 1.0 | 0.00 | 0.00 | 0.00 | 83 | 1012.4 |
| 20260904092503 | 78 | 250 | 0.0 | 0.0 | 0.00 | 0.00 | 0.00 | 83 | 1012.5 |
| 20260904092004 | 78 | 250 | 0.0 | 1.0 | 0.00 | 0.00 | 0.00 | 84 | 1012.6 |
| 20260904091503 | 78 | 250 | 0.0 | 1.0 | 0.00 | 0.00 | 0.00 | 84 | 1012.7 |
| 20260904090503 | 78 | 250 | 0.0 | 0.0 | 0.00 | 0.00 | 0.00 | 84 | 1012.9 |
| 20260904090004 | 78 | 250 | 0.0 | 0.0 | 0.00 | 0.00 | 0.00 | 84 | 1013.0 |
| 20260904085503 | 78 | 250 | 0.0 | 0.0 | 0.00 | 0.00 | 0.00 | 84 | 1012.9 |
| 20260904085006 | 78 | 250 | 0.0 | 0.0 | 0.00 | 0.00 | 0.00 | 84 | 1013.1 |
| 20260904084503 | 78 | 250 | 0.0 | 0.0 | 0.00 | 0.00 | 0.00 | 84 | 1013.1 |
| 20260904084004 | 78 | 250 | 0.0 | 0.0 | 0.00 | 0.00 | 0.00 | 84 | 1013.0 |
| 20260904083502 | 78 | 250 | 0.0 | 0.0 | 0.00 | 0.00 | 0.00 | 83 | 1013.0 |
| 20260904082503 | 78 | 250 | 0.0 | 0.0 | 0.00 | 0.00 | 0.00 | 83 | 1013.1 |
| 20260904082005 | 79 | 250 | 0.0 | 0.0 | 0.00 | 0.00 | 0.00 | 83 | 1013.0 |
| 20260904080503 | 79 | 250 | 0.0 | 0.0 | 0.00 | 0.00 | 0.00 | 82 | 1012.8 |
| 20260904080007 | 79 | 250 | 0.0 | 0.0 | 0.00 | 0.00 | 0.00 | 82 | 1012.7 |
| 20260904075503 | 79 | 250 | 0.0 | 0.0 | 0.00 | 0.00 | 0.00 | 82 | 1012.7 |
| 20260904075003 | 79 | 250 | 0.0 | 0.0 | 0.00 | 0.00 | 0.00 | 82 | 1012.6 |
| 20260904074503 | 79 | 250 | 0.0 | 0.0 | 0.00 | 0.00 | 0.00 | 82 | 1012.5 |
| 20260904074003 | 79 | 250 | 0.0 | 0.0 | 0.00 | 0.00 | 0.00 | 82 | 1012.3 |
| 20260904073503 | 79 | 250 | 0.0 | 0.0 | 0.00 | 0.00 | 0.00 | 82 | 1012.2 |
| 20260904073007 | 79 | 250 | 0.0 | 1.0 | 0.00 | 0.00 | 0.00 | 82 | 1012.3 |
| 20260904072503 | 79 | 250 | 0.0 | 1.0 | 0.00 | 0.00 | 0.00 | 83 | 1012.2 |
| 20260904072004 | 79 | 259 | 0.0 | 0.0 | 0.00 | 0.00 | 0.00 | 83 | 1012.3 |
| 20260904071503 | 79 | 259 | 0.0 | 0.0 | 0.00 | 0.00 | 0.00 | 83 | 1012.3 |
| 20260904071003 | 78 | 259 | 0.0 | 0.0 | 0.00 | 0.00 | 0.00 | 84 | 1012.3 |
| 20260904070503 | 78 | 259 | 0.0 | 0.0 | 0.00 | 0.00 | 0.00 | 84 | 1012.3 |
| 20260904070004 | 78 | 259 | 0.0 | 0.0 | 0.00 | 0.00 | 0.00 | 85 | 1012.4 |
| 20260904065503 | 78 | 259 | 0.0 | 0.0 | 0.00 | 0.00 | 0.00 | 86 | 1012.6 |
| 20260904065005 | 78 | 259 | 0.0 | 0.0 | 0.00 | 0.00 | 0.00 | 86 | 1012.6 |
| 20260904064003 | 77 | 259 | 0.0 | 0.0 | 0.00 | 0.00 | 0.00 | 86 | 1012.8 |
| 20260904063505 | 78 | 259 | 0.0 | 0.0 | 0.00 | 0.00 | 0.00 | 86 | 1013.0 |
| 20260904063007 | 78 | 259 | 0.0 | 0.0 | 0.00 | 0.00 | 0.00 | 86 | 1013.3 |
| 20260904062503 | 78 | 259 | 0.0 | 0.0 | 0.00 | 0.00 | 0.00 | 86 | 1013.5 |
| 20260904062003 | 78 | 259 | 0.0 | 0.0 | 0.00 | 0.00 | 0.00 | 86 | 1013.6 |
| 20260904061503 | 78 | 259 | 0.0 | 0.0 | 0.00 | 0.00 | 0.00 | 86 | 1013.6 |
| 20260904061004 | 78 | 259 | 0.0 | 0.0 | 0.00 | 0.00 | 0.00 | 85 | 1013.7 |
| 20260904060007 | 78 | 259 | 0.0 | 0.0 | 0.00 | 0.00 | 0.00 | 85 | 1013.6 |
| 20260904055505 | 78 | 259 | 0.0 | 0.0 | 0.00 | 0.00 | 0.00 | 85 | 1013.7 |
| 20260904055008 | 78 | 259 | 0.0 | 0.0 | 0.00 | 0.00 | 0.00 | 85 | 1013.8 |
| 20260904054506 | 79 | 259 | 0.0 | 0.0 | 0.00 | 0.00 | 0.00 | 85 | 1013.8 |
| 20260904054005 | 79 | 259 | 0.0 | 0.0 | 0.00 | 0.00 | 0.00 | 85 | 1013.8 |
| 20260904053503 | 79 | 259 | 0.0 | 0.0 | 0.00 | 0.00 | 0.00 | 85 | 1013.8 |
| 20260904053005 | 79 | 259 | 0.0 | 0.0 | 0.00 | 0.00 | 0.00 | 84 | 1013.7 |
| 20260904052504 | 79 | 259 | 0.0 | 0.0 | 0.00 | 0.00 | 0.00 | 84 | 1013.7 |
| 20260904051506 | 79 | 259 | 0.0 | 0.0 | 0.00 | 0.00 | 0.00 | 84 | 1013.7 |
| 20260904051005 | 79 | 259 | 0.0 | 0.0 | 0.00 | 0.00 | 0.00 | 84 | 1013.6 |
| 20260904050506 | 79 | 259 | 0.0 | 0.0 | 0.00 | 0.00 | 0.00 | 84 | 1013.5 |
| 20260904045503 | 79 | 259 | 0.0 | 0.0 | 0.00 | 0.00 | 0.00 | 83 | 1013.5 |
| 20260904045004 | 80 | 259 | 0.0 | 0.0 | 0.00 | 0.00 | 0.00 | 83 | 1013.5 |
| 20260904044503 | 80 | 259 | 0.0 | 0.0 | 0.00 | 0.00 | 0.00 | 83 | 1013.4 |
| 20260904044005 | 80 | 259 | 0.0 | 0.0 | 0.00 | 0.00 | 0.00 | 83 | 1013.5 |
| 20260904043503 | 80 | 259 | 0.0 | 0.0 | 0.00 | 0.00 | 0.00 | 82 | 1013.5 |
| 20260904043005 | 80 | 259 | 0.0 | 0.0 | 0.00 | 0.00 | 0.00 | 83 | 1013.6 |
| 20260904042503 | 80 | 259 | 0.0 | 0.0 | 0.00 | 0.00 | 0.00 | 83 | 1013.5 |
| 20260904041503 | 80 | 259 | 0.0 | 0.0 | 0.00 | 0.00 | 0.00 | 83 | 1013.5 |
| 20260904041006 | 80 | 259 | 0.0 | 0.0 | 0.00 | 0.00 | 0.00 | 83 | 1013.6 |
| 20260904040503 | 80 | 259 | 0.0 | 0.0 | 0.00 | 0.00 | 0.00 | 83 | 1013.4 |
| 20260904040007 | 80 | 259 | 0.0 | 0.0 | 0.00 | 0.00 | 0.00 | 83 | 1013.5 |
| 20260904035503 | 80 | 259 | 0.0 | 0.0 | 0.00 | 0.00 | 0.00 | 83 | 1013.6 |
| 20260904035008 | 80 | 259 | 0.0 | 0.0 | 0.00 | 0.00 | 0.00 | 82 | 1013.6 |
| 20260904034503 | 80 | 259 | 0.0 | 0.0 | 0.00 | 0.00 | 0.00 | 82 | 1013.5 |
| 20260904034008 | 80 | 259 | 0.0 | 0.0 | 0.00 | 0.00 | 0.00 | 82 | 1013.5 |
| 20260904033503 | 80 | 259 | 0.0 | 0.0 | 0.00 | 0.00 | 0.00 | 81 | 1013.6 |
| 20260904033005 | 80 | 259 | 0.0 | 0.0 | 0.00 | 0.00 | 0.00 | 81 | 1013.6 |
| 20260904031004 | 80 | 259 | 0.0 | 0.0 | 0.00 | 0.00 | 0.00 | 79 | 1013.7 |
| 20260904030503 | 80 | 259 | 0.0 | 0.0 | 0.00 | 0.00 | 0.00 | 79 | 1013.8 |
| 20260904025503 | 81 | 259 | 0.0 | 0.0 | 0.00 | 0.00 | 0.00 | 78 | 1013.8 |
| 20260904025005 | 81 | 259 | 0.0 | 0.0 | 0.00 | 0.00 | 0.00 | 78 | 1013.7 |
| 20260904024503 | 81 | 259 | 0.0 | 0.0 | 0.00 | 0.00 | 0.00 | 77 | 1013.7 |
| 20260904024005 | 81 | 259 | 0.0 | 0.0 | 0.00 | 0.00 | 0.00 | 77 | 1013.6 |
| 20260904023503 | 81 | 259 | 0.0 | 0.0 | 0.00 | 0.00 | 0.00 | 77 | 1013.8 |
| 20260904023005 | 81 | 259 | 0.0 | 0.0 | 0.00 | 0.00 | 0.00 | 77 | 1013.9 |
| 20260904022504 | 81 | 259 | 0.0 | 0.0 | 0.00 | 0.00 | 0.00 | 76 | 1013.8 |
| 20260904021006 | 81 | 259 | 0.0 | 0.0 | 0.00 | 0.00 | 0.00 | 75 | 1013.5 |
| 20260904020007 | 82 | 259 | 0.0 | 0.0 | 0.00 | 0.00 | 0.00 | 75 | 1013.6 |
| 20260904015503 | 82 | 259 | 0.0 | 0.0 | 0.00 | 0.00 | 0.00 | 75 | 1013.5 |
| 20260904015004 | 82 | 259 | 0.0 | 0.0 | 0.00 | 0.00 | 0.00 | 75 | 1013.5 |
| 20260904014503 | 82 | 259 | 0.0 | 0.0 | 0.00 | 0.00 | 0.00 | 74 | 1013.6 |
| 20260904014005 | 82 | 259 | 0.0 | 0.0 | 0.00 | 0.00 | 0.00 | 74 | 1013.6 |
| 20260904013503 | 82 | 259 | 0.0 | 0.0 | 0.00 | 0.00 | 0.00 | 74 | 1013.5 |
| 20260904013006 | 82 | 259 | 0.0 | 0.0 | 0.00 | 0.00 | 0.00 | 73 | 1013.4 |
| 20260904012503 | 83 | 259 | 0.0 | 0.0 | 0.00 | 0.00 | 0.00 | 72 | 1013.3 |
| 20260904012005 | 83 | 259 | 0.0 | 0.0 | 0.00 | 0.00 | 0.00 | 72 | 1013.2 |
| 20260904011005 | 83 | 259 | 0.0 | 0.0 | 0.00 | 0.00 | 0.00 | 71 | 1013.0 |
| 20260904010504 | 83 | 259 | 0.0 | 0.0 | 0.00 | 0.00 | 0.00 | 70 | 1012.7 |
| 20260904010008 | 84 | 259 | 0.0 | 0.0 | 0.00 | 0.00 | 0.00 | 69 | 1012.6 |
| 20260904005503 | 84 | 259 | 0.0 | 0.0 | 0.00 | 0.00 | 0.00 | 69 | 1012.5 |
| 20260904005004 | 84 | 259 | 0.0 | 0.0 | 0.00 | 0.00 | 0.00 | 69 | 1012.5 |
| 20260904004503 | 84 | 259 | 0.0 | 0.0 | 0.00 | 0.00 | 0.00 | 69 | 1012.6 |
| 20260904004004 | 85 | 259 | 0.0 | 0.0 | 0.00 | 0.00 | 0.00 | 68 | 1012.4 |
| 20260904002503 | 85 | 259 | 0.0 | 0.0 | 0.00 | 0.00 | 0.00 | 66 | 1012.4 |
| 20260904001005 | 87 | 259 | 0.0 | 0.0 | 0.00 | 0.00 | 0.00 | 65 | 1012.4 |
| 20260904000503 | 87 | 259 | 0.0 | 0.0 | 0.00 | 0.00 | 0.00 | 64 | 1012.4 |
| 20260904000007 | 88 | 259 | 0.0 | 0.0 | 0.00 | 0.00 | 0.00 | 63 | 1012.4 |
| 20260903235503 | 88 | 259 | 0.0 | 0.0 | 0.00 | 0.00 | 0.00 | 62 | 1012.4 |
| 20260903235004 | 89 | 259 | 0.0 | 0.0 | 0.00 | 0.00 | 0.00 | 60 | 1012.5 |
| 20260903234503 | 89 | 259 | 0.0 | 1.0 | 0.00 | 0.00 | 0.00 | 58 | 1012.5 |
| 20260903234004 | 89 | 259 | 0.0 | 1.0 | 0.00 | 0.00 | 0.00 | 58 | 1012.4 |
| 20260903233504 | 89 | 259 | 0.0 | 2.0 | 0.00 | 0.00 | 0.00 | 57 | 1012.5 |
| 20260903232505 | 90 | 259 | 0.0 | 1.0 | 0.00 | 0.00 | 0.00 | 57 | 1012.5 |
| 20260903232005 | 90 | 259 | 0.0 | 2.0 | 0.00 | 0.00 | 0.00 | 58 | 1012.6 |
| 20260903231506 | 90 | 259 | 0.0 | 2.0 | 0.00 | 0.00 | 0.00 | 58 | 1012.6 |
| 20260903231004 | 90 | 257 | 0.0 | 0.0 | 0.00 | 0.00 | 0.00 | 58 | 1012.7 |
| 20260903230504 | 91 | 257 | 0.0 | 3.0 | 0.00 | 0.00 | 0.00 | 57 | 1012.7 |
| 20260903230006 | 91 | 257 | 0.0 | 3.0 | 0.00 | 0.00 | 0.00 | 56 | 1012.7 |
| 20260903225504 | 91 | 260 | 0.0 | 2.0 | 0.00 | 0.00 | 0.00 | 56 | 1012.8 |
| 20260903225004 | 91 | 260 | 0.0 | 1.0 | 0.00 | 0.00 | 0.00 | 57 | 1012.7 |
| 20260903224504 | 91 | 260 | 0.0 | 1.0 | 0.00 | 0.00 | 0.00 | 56 | 1012.7 |
| 20260903224004 | 91 | 260 | 0.0 | 3.0 | 0.00 | 0.00 | 0.00 | 55 | 1012.7 |
| 20260903223503 | 91 | 263 | 0.0 | 2.0 | 0.00 | 0.00 | 0.00 | 56 | 1012.8 |
| 20260903223008 | 92 | 261 | 0.0 | 2.0 | 0.00 | 0.00 | 0.00 | 56 | 1012.7 |
| 20260903222503 | 92 | 261 | 0.0 | 2.0 | 0.00 | 0.00 | 0.00 | 56 | 1012.8 |
| 20260903222004 | 92 | 261 | 0.0 | 2.0 | 0.00 | 0.00 | 0.00 | 55 | 1012.9 |
| 20260903221504 | 93 | 264 | 0.0 | 2.0 | 0.00 | 0.00 | 0.00 | 54 | 1013.0 |
| 20260903221004 | 93 | 237 | 0.0 | 1.0 | 0.00 | 0.00 | 0.00 | 54 | 1013.0 |
| 20260903220502 | 93 | 237 | 0.0 | 1.0 | 0.00 | 0.00 | 0.00 | 54 | 1013.0 |
| 20260903220006 | 93 | 236 | 0.0 | 2.0 | 0.00 | 0.00 | 0.00 | 54 | 1012.9 |
| 20260903215503 | 94 | 232 | 0.0 | 2.0 | 0.00 | 0.00 | 0.00 | 55 | 1013.0 |
| 20260903215004 | 94 | 232 | 0.0 | 2.0 | 0.00 | 0.00 | 0.00 | 54 | 1013.0 |
| 20260903214503 | 94 | 232 | 0.0 | 1.0 | 0.00 | 0.00 | 0.00 | 55 | 1013.0 |
| 20260903214008 | 94 | 232 | 0.0 | 1.0 | 0.00 | 0.00 | 0.00 | 54 | 1013.0 |
| 20260903213503 | 93 | 232 | 0.0 | 1.0 | 0.00 | 0.00 | 0.00 | 56 | 1013.0 |
| 20260903213006 | 93 | 232 | 0.0 | 1.0 | 0.00 | 0.00 | 0.00 | 54 | 1012.9 |
| 20260903212503 | 93 | 232 | 0.0 | 1.0 | 0.00 | 0.00 | 0.00 | 56 | 1012.9 |
| 20260903212007 | 93 | 232 | 0.0 | 1.0 | 0.00 | 0.00 | 0.00 | 54 | 1013.0 |
| 20260903211503 | 93 | 232 | 0.0 | 1.0 | 0.00 | 0.00 | 0.00 | 58 | 1013.0 |
| 20260903211008 | 93 | 232 | 0.0 | 1.0 | 0.00 | 0.00 | 0.00 | 57 | 1013.0 |
| 20260903210505 | 93 | 232 | 0.0 | 1.0 | 0.00 | 0.00 | 0.00 | 57 | 1013.1 |
| 20260903210007 | 93 | 232 | 0.0 | 1.0 | 0.00 | 0.00 | 0.00 | 56 | 1013.0 |
| 20260903205503 | 92 | 232 | 0.0 | 1.0 | 0.00 | 0.00 | 0.00 | 57 | 1013.0 |
| 20260903205005 | 92 | 232 | 0.0 | 1.0 | 0.00 | 0.00 | 0.00 | 57 | 1012.9 |
| 20260903204506 | 93 | 232 | 0.0 | 4.0 | 0.00 | 0.00 | 0.00 | 57 | 1012.8 |
| 20260903204007 | 92 | 232 | 0.0 | 4.0 | 0.00 | 0.00 | 0.00 | 58 | 1012.9 |
| 20260903203503 | 92 | 265 | 0.0 | 2.0 | 0.00 | 0.00 | 0.00 | 59 | 1013.0 |
| 20260903203005 | 92 | 265 | 0.0 | 1.0 | 0.00 | 0.00 | 0.00 | 59 | 1013.1 |
| 20260903202503 | 92 | 265 | 0.0 | 1.0 | 0.00 | 0.00 | 0.00 | 60 | 1013.1 |
| 20260903202008 | 91 | 265 | 0.0 | 3.0 | 0.00 | 0.00 | 0.00 | 61 | 1013.2 |